EW7100 Weather Reports


time (UTC)temp
F
wind
direction
speed
knots
gust
knots
rain 1hr
in
rain 24hr
in
rain mn
in
humidity
%
barometer
mb
20220124100743 26 162 0.0 0.0 0.00 0.00 0.00 56 1011.9
20220124100241 26 163 0.0 0.0 0.00 0.00 0.00 57 1011.8
20220124095741 26 163 0.0 0.0 0.00 0.00 0.00 56 1011.9
20220124095240 26 163 0.0 0.0 0.00 0.00 0.00 56 1011.9
20220124094741 26 163 0.0 3.5 0.00 0.00 0.00 56 1012.0
20220124094241 26 173 0.9 7.0 0.00 0.00 0.00 56 1012.0
20220124093740 26 198 0.9 7.0 0.00 0.00 0.00 56 1012.0
20220124093240 26 140 0.9 6.1 0.00 0.00 0.00 56 1012.0
20220124092741 26 139 0.9 6.1 0.00 0.00 0.00 55 1012.1
20220124092240 26 152 0.0 4.3 0.00 0.00 0.00 55 1012.0
20220124091740 27 199 0.0 1.7 0.00 0.00 0.00 54 1012.1
20220124091241 27 140 0.0 6.1 0.00 0.00 0.00 54 1012.1
20220124090741 27 140 0.0 6.1 0.00 0.00 0.00 55 1012.0
20220124090240 27 134 0.0 3.5 0.00 0.00 0.00 55 1012.0
20220124085740 27 134 0.0 3.5 0.00 0.00 0.00 55 1012.0
20220124085242 27 133 0.0 2.6 0.00 0.00 0.00 55 1012.1
20220124084741 27 133 0.0 2.6 0.00 0.00 0.00 55 1012.0
20220124084241 27 132 0.0 1.7 0.00 0.00 0.00 55 1012.1
20220124083741 27 132 0.9 4.3 0.00 0.00 0.00 54 1012.0
20220124083240 27 132 0.0 4.3 0.00 0.00 0.00 54 1011.9
20220124082741 27 176 0.0 1.7 0.00 0.00 0.00 54 1011.8
20220124082241 27 185 0.0 3.5 0.00 0.00 0.00 54 1011.9
20220124081741 27 184 0.0 3.5 0.00 0.00 0.00 55 1011.8
20220124081240 27 144 0.0 2.6 0.00 0.00 0.00 55 1011.8
20220124080741 27 145 0.0 6.1 0.00 0.00 0.00 55 1011.8
20220124080239 27 145 0.9 6.1 0.00 0.00 0.00 55 1011.9
20220124075744 27 145 0.9 5.2 0.00 0.00 0.00 55 1011.9
20220124075238 28 145 0.9 4.3 0.00 0.00 0.00 54 1011.9
20220124074739 28 145 0.0 4.3 0.00 0.00 0.00 55 1011.9
20220124074238 28 144 0.0 0.0 0.00 0.00 0.00 55 1011.8
20220124073739 28 144 0.0 0.0 0.00 0.00 0.00 55 1011.8
20220124073238 28 144 0.0 0.0 0.00 0.00 0.00 55 1011.8
20220124072739 28 144 0.0 0.0 0.00 0.00 0.00 54 1011.9
20220124072238 28 144 0.0 0.0 0.00 0.00 0.00 54 1012.0
20220124071749 28 144 0.0 0.0 0.00 0.00 0.00 54 1012.0
20220124071244 28 144 0.0 0.0 0.00 0.00 0.00 54 1012.1
20220124070742 28 144 0.0 0.0 0.00 0.00 0.00 54 1012.1
20220124070236 28 144 0.0 3.5 0.00 0.00 0.00 54 1012.1
20220124065738 28 144 0.0 3.5 0.00 0.00 0.00 54 1012.1
20220124065238 28 144 0.0 0.0 0.00 0.00 0.00 54 1012.1
20220124064738 28 144 0.0 0.0 0.00 0.00 0.00 54 1012.2
20220124064236 28 144 0.0 3.5 0.00 0.00 0.00 54 1012.0
20220124063737 28 144 0.0 4.3 0.00 0.00 0.00 54 1012.1
20220124063240 28 135 0.0 4.3 0.00 0.00 0.00 55 1012.1
20220124062736 28 132 0.0 0.0 0.00 0.00 0.00 55 1012.4
20220124062236 28 132 0.0 0.0 0.00 0.00 0.00 54 1012.1
20220124061736 28 132 0.0 0.0 0.00 0.00 0.00 54 1012.1
20220124061237 28 132 0.0 0.0 0.00 0.00 0.00 54 1012.2
20220124060736 29 132 0.0 3.5 0.00 0.00 0.00 54 1012.2
20220124060236 29 132 0.0 3.5 0.00 0.00 0.00 54 1012.2
20220124055736 29 132 0.0 3.5 0.00 0.00 0.00 53 1012.2
20220124055236 29 128 0.0 3.5 0.00 0.00 0.00 53 1012.2
20220124054735 29 127 0.0 3.5 0.00 0.00 0.00 53 1012.2
20220124054232 29 141 0.0 4.3 0.00 0.00 0.00 53 1012.2
20220124053734 29 141 0.0 4.3 0.00 0.00 0.00 53 1012.2
20220124053232 29 159 0.0 0.0 0.00 0.00 0.00 53 1012.4
20220124052733 29 160 0.0 0.0 0.00 0.00 0.00 53 1012.4
20220124052233 29 160 0.0 0.0 0.00 0.00 0.00 53 1012.6
20220124051733 30 159 0.0 0.0 0.00 0.00 0.00 52 1012.5
20220124051231 30 160 0.0 4.3 0.00 0.00 0.00 53 1012.5
20220124050730 30 160 0.0 4.3 0.00 0.00 0.00 53 1012.5
20220124050229 29 138 0.0 1.7 0.00 0.00 0.00 53 1012.6
20220124045729 29 137 0.0 4.3 0.00 0.00 0.00 53 1012.7
20220124045228 29 132 0.0 4.3 0.00 0.00 0.00 53 1012.8
20220124044726 29 180 0.0 0.0 0.00 0.00 0.00 54 1013.0
20220124044226 29 194 0.0 0.0 0.00 0.00 0.00 54 1012.8
20220124043724 29 210 0.0 3.5 0.00 0.00 0.00 54 1012.8
20220124043224 29 211 0.0 3.5 0.00 0.00 0.00 55 1013.0
20220124042724 29 134 0.0 0.0 0.00 0.00 0.00 55 1013.0
20220124042224 29 134 0.0 0.0 0.00 0.00 0.00 55 1013.1
20220124041724 29 134 0.0 0.0 0.00 0.00 0.00 54 1013.0
20220124041224 30 134 0.0 0.0 0.00 0.00 0.00 54 1013.0
20220124040725 30 134 0.0 1.7 0.00 0.00 0.00 54 1013.1
20220124040224 30 132 0.0 1.7 0.00 0.00 0.00 54 1013.3
20220124035722 30 63 0.0 0.0 0.00 0.00 0.00 54 1013.2
20220124035224 30 63 0.0 0.0 0.00 0.00 0.00 53 1013.3
20220124034722 30 63 0.0 0.0 0.00 0.00 0.00 53 1013.2
20220124034222 30 59 0.0 0.0 0.00 0.00 0.00 53 1013.2
20220124033722 30 54 0.0 0.0 0.00 0.00 0.00 53 1013.2
20220124033222 30 47 0.0 0.0 0.00 0.00 0.00 53 1013.3
20220124032722 31 46 0.0 0.0 0.00 0.00 0.00 53 1013.3
20220124032223 31 32 0.0 0.0 0.00 0.00 0.00 52 1013.4
20220124031722 31 32 0.0 0.0 0.00 0.00 0.00 52 1013.4
20220124031223 31 32 0.0 0.0 0.00 0.00 0.00 52 1013.4
20220124030720 31 32 0.0 0.0 0.00 0.00 0.00 51 1013.5
20220124030220 31 32 0.0 0.0 0.00 0.00 0.00 51 1013.7
20220124025721 31 32 0.0 0.0 0.00 0.00 0.00 50 1013.8
20220124025220 31 32 0.0 0.0 0.00 0.00 0.00 50 1013.8
20220124024720 32 32 0.0 0.0 0.00 0.00 0.00 49 1013.7
20220124024220 32 32 0.0 0.0 0.00 0.00 0.00 49 1013.7
20220124023720 32 32 0.0 0.0 0.00 0.00 0.00 49 1013.7
20220124023222 32 32 0.0 0.0 0.00 0.00 0.00 48 1013.7
20220124022721 33 32 0.0 0.0 0.00 0.00 0.00 47 1013.7
20220124022220 33 32 0.0 0.0 0.00 0.00 0.00 46 1013.7
20220124021718 33 32 0.0 0.0 0.00 0.00 0.00 45 1013.5
20220124021218 34 32 0.0 0.0 0.00 0.00 0.00 45 1013.5
20220124020718 34 32 0.0 0.0 0.00 0.00 0.00 44 1013.5
20220124020218 34 32 0.0 0.0 0.00 0.00 0.00 43 1013.5
20220124015718 35 32 0.0 0.0 0.00 0.00 0.00 43 1013.5
20220124015219 35 32 0.0 0.0 0.00 0.00 0.00 42 1013.4
20220124014717 35 32 0.0 0.0 0.00 0.00 0.00 42 1013.4
20220124014218 36 32 0.0 0.0 0.00 0.00 0.00 41 1013.3
20220124013718 36 32 0.0 0.0 0.00 0.00 0.00 40 1013.3
20220124013219 36 32 0.0 0.0 0.00 0.00 0.00 40 1013.3
20220124012716 37 32 0.0 0.0 0.00 0.00 0.00 38 1013.3
20220124012216 37 32 0.0 0.0 0.00 0.00 0.00 37 1013.3
20220124011716 37 32 0.0 0.0 0.00 0.00 0.00 37 1013.3
20220124011217 38 32 0.0 0.0 0.00 0.00 0.00 37 1013.3
20220124010716 38 32 0.0 0.0 0.00 0.00 0.00 37 1013.2
20220124010216 39 32 0.0 0.0 0.00 0.00 0.00 36 1013.3
20220124005715 39 32 0.0 0.0 0.00 0.00 0.00 35 1013.3
20220124005216 40 32 0.0 0.0 0.00 0.00 0.00 34 1013.3
20220124004713 40 32 0.0 0.0 0.00 0.00 0.00 34 1013.3
20220124004214 41 32 0.0 0.0 0.00 0.00 0.00 33 1013.3
20220124003712 42 32 0.0 0.0 0.00 0.00 0.00 32 1013.3
20220124003213 42 32 0.0 0.0 0.00 0.00 0.00 30 1013.3
20220124002712 43 32 0.0 0.0 0.00 0.00 0.00 29 1013.3
20220124002210 44 32 0.0 0.0 0.00 0.00 0.00 28 1013.3
20220124001710 45 32 0.0 0.0 0.00 0.00 0.00 27 1013.2
20220124001209 46 32 0.0 0.0 0.00 0.00 0.00 25 1013.2
20220124000710 47 32 0.0 0.0 0.00 0.00 0.00 23 1013.3
20220124000211 48 32 0.0 0.0 0.00 0.00 0.00 22 1013.3
20220123235710 49 32 0.0 0.0 0.00 0.00 0.00 21 1013.3
20220123235212 49 32 0.0 0.0 0.00 0.00 0.00 19 1013.3
20220123234708 50 32 0.0 0.0 0.00 0.00 0.00 18 1013.3
20220123234208 51 32 0.0 0.0 0.00 0.00 0.00 16 1013.3
20220123233708 52 32 0.0 0.0 0.00 0.00 0.00 15 1013.2
20220123233208 53 32 0.0 0.0 0.00 0.00 0.00 14 1013.1
20220123232707 53 32 0.0 0.0 0.00 0.00 0.00 14 1013.1
20220123232208 54 32 0.0 0.0 0.00 0.00 0.00 14 1013.1
20220123231707 54 32 0.0 0.0 0.00 0.00 0.00 13 1013.1
20220123231207 54 32 0.0 0.0 0.00 0.00 0.00 13 1013.2
20220123230705 53 32 0.0 0.0 0.00 0.00 0.00 14 1013.2
20220123230205 53 32 0.0 0.0 0.00 0.00 0.00 14 1013.2
20220123225704 53 32 0.0 0.9 0.00 0.00 0.00 14 1013.2
20220123225203 53 32 0.0 0.9 0.00 0.00 0.00 13 1013.2
20220123224703 53 32 0.0 0.9 0.00 0.00 0.00 13 1013.2
20220123224205 53 32 0.0 1.7 0.00 0.00 0.00 14 1013.2
20220123223704 53 32 0.0 2.6 0.00 0.00 0.00 14 1013.2
20220123223203 52 32 0.9 2.6 0.00 0.00 0.00 16 1013.3
20220123222703 52 32 0.9 3.5 0.00 0.00 0.00 14 1013.4
20220123222203 53 32 0.9 3.5 0.00 0.00 0.00 14 1013.4
20220123221703 53 22 0.0 3.5 0.00 0.00 0.00 16 1013.4
20220123221204 53 135 0.0 3.5 0.00 0.00 0.00 15 1013.4
20220123220704 52 135 0.0 2.6 0.00 0.00 0.00 15 1013.4
20220123220204 52 144 0.9 3.5 0.00 0.00 0.00 15 1013.4
20220123215704 52 144 0.9 4.3 0.00 0.00 0.00 15 1013.5
20220123215205 52 161 0.9 6.1 0.00 0.00 0.00 16 1013.5
20220123214703 51 167 0.9 6.1 0.00 0.00 0.00 16 1013.5
20220123214203 51 143 0.9 5.2 0.00 0.00 0.00 16 1013.7
20220123213703 51 143 0.9 5.2 0.00 0.00 0.00 17 1013.8
20220123213203 51 155 1.7 7.0 0.00 0.00 0.00 17 1013.8
20220123212703 51 141 0.9 7.0 0.00 0.00 0.00 18 1014.0
20220123212203 50 199 0.9 7.0 0.00 0.00 0.00 19 1014.1
20220123211703 49 146 1.7 7.0 0.00 0.00 0.00 20 1014.1
20220123211204 49 140 0.9 7.0 0.00 0.00 0.00 20 1014.3
20220123210704 49 205 1.7 7.0 0.00 0.00 0.00 21 1014.4
20220123210203 49 165 1.7 6.1 0.00 0.00 0.00 21 1014.5
20220123205703 48 154 1.7 6.1 0.00 0.00 0.00 21 1014.5
20220123205203 48 182 2.6 7.0 0.00 0.00 0.00 21 1014.6
20220123204704 48 139 1.7 7.0 0.00 0.00 0.00 19 1014.8
20220123204204 48 156 0.9 7.0 0.00 0.00 0.00 20 1015.0
20220123203701 48 136 1.7 7.8 0.00 0.00 0.00 20 1015.1
20220123203205 48 145 1.7 7.8 0.00 0.00 0.00 19 1015.2
20220123202701 48 152 0.9 7.0 0.00 0.00 0.00 18 1015.3
20220123202200 48 193 0.9 7.0 0.00 0.00 0.00 17 1015.5
20220123201659 48 183 0.9 7.0 0.00 0.00 0.00 16 1015.8
20220123201203 48 142 0.0 7.0 0.00 0.00 0.00 16 1015.9
20220123200659 48 196 0.9 6.1 0.00 0.00 0.00 17 1016.1
20220123200200 48 165 0.9 6.1 0.00 0.00 0.00 16 1016.3
20220123195658 47 173 0.0 3.5 0.00 0.00 0.00 19 1016.4
20220123195158 47 183 0.0 1.7 0.00 0.00 0.00 17 1016.7
20220123194655 47 178 0.0 3.5 0.00 0.00 0.00 17 1016.8
20220123194156 47 176 0.0 5.2 0.00 0.00 0.00 18 1017.0
20220123193653 47 177 0.0 5.2 0.00 0.00 0.00 18 1017.1
20220123193153 46 119 0.9 4.3 0.00 0.00 0.00 19 1017.3
20220123192651 46 115 0.9 4.3 0.00 0.00 0.00 22 1017.3
20220123192152 45 206 0.9 4.3 0.00 0.00 0.00 21 1017.4
20220123191651 45 134 0.9 7.0 0.00 0.00 0.00 20 1017.6
20220123191151 45 136 1.7 7.0 0.00 0.00 0.00 20 1017.7
20220123190651 45 140 0.9 6.1 0.00 0.00 0.00 22 1017.7
20220123190150 44 201 0.9 4.3 0.00 0.00 0.00 22 1017.8
20220123185649 44 217 0.9 4.3 0.00 0.00 0.00 20 1018.0
20220123185147 44 173 0.9 4.3 0.00 0.01 0.00 22 1018.3
20220123184647 44 146 0.0 4.3 0.00 0.01 0.00 21 1018.5
20220123184145 43 153 0.0 1.7 0.00 0.01 0.00 24 1018.5
20220123183648 43 154 0.9 6.1 0.00 0.01 0.00 23 1018.6
20220123183145 43 163 0.9 6.1 0.00 0.01 0.00 23 1018.7
20220123182645 43 140 0.0 4.3 0.00 0.01 0.00 25 1019.0
20220123182145 42 157 0.0 5.2 0.00 0.01 0.00 25 1019.2
20220123181645 42 164 0.0 5.2 0.00 0.01 0.00 24 1019.3
20220123181145 42 215 0.0 3.5 0.00 0.01 0.00 25 1019.3
20220123180643 42 221 0.0 2.6 0.00 0.01 0.00 25 1019.4
20220123180147 42 106 0.0 0.0 0.00 0.02 0.00 27 1019.6
20220123175643 41 105 0.0 0.0 0.00 0.02 0.00 27 1019.6
20220123175143 41 186 0.0 0.0 0.00 0.02 0.00 27 1019.6
20220123174643 40 140 0.0 2.6 0.00 0.02 0.00 27 1019.6
20220123174143 40 194 0.0 3.5 0.00 0.03 0.00 29 1019.6
20220123173643 39 211 0.9 4.3 0.00 0.03 0.00 29 1019.7
20220123173144 39 199 0.0 4.3 0.00 0.04 0.00 30 1019.8
20220123172644 38 196 0.0 1.7 0.00 0.04 0.00 31 1019.9
20220123172144 38 206 0.0 3.5 0.00 0.04 0.00 33 1020.0
20220123171641 37 151 0.9 3.5 0.00 0.04 0.00 31 1020.0
20220123171143 37 205 0.0 4.3 0.00 0.04 0.00 32 1020.2
20220123170640 37 211 0.0 6.1 0.00 0.04 0.00 31 1020.3
20220123170140 37 142 0.0 6.1 0.00 0.04 0.00 33 1020.4
20220123165642 36 136 0.0 0.0 0.00 0.05 0.00 36 1020.5
20220123165141 35 136 0.0 0.0 0.00 0.05 0.00 38 1020.5
20220123164641 34 136 0.0 0.0 0.00 0.05 0.00 37 1020.6
20220123164143 34 136 0.0 0.0 0.00 0.05 0.00 40 1020.6
20220123163641 33 136 0.0 0.0 0.00 0.05 0.00 40 1020.6
20220123163141 32 136 0.0 0.0 0.00 0.05 0.00 40 1020.7
20220123162641 31 136 0.0 0.0 0.00 0.05 0.00 41 1020.7
20220123162141 31 136 0.0 0.0 0.00 0.05 0.00 43 1020.9
20220123161640 30 136 0.0 0.0 0.00 0.05 0.00 45 1020.7
20220123161140 29 136 0.0 0.0 0.00 0.05 0.00 47 1020.7
20220123160639 28 136 0.0 0.0 0.00 0.05 0.00 49 1020.7
20220123160140 27 136 0.0 0.0 0.00 0.05 0.00 49 1020.7
20220123155639 26 136 0.0 0.0 0.00 0.05 0.00 51 1020.9
20220123155139 25 136 0.0 0.0 0.00 0.05 0.00 52 1021.0
20220123154638 25 136 0.0 0.0 0.00 0.05 0.00 55 1021.0
20220123154139 24 136 0.0 0.0 0.00 0.05 0.00 56 1020.9
20220123153639 23 136 0.0 0.0 0.00 0.05 0.00 58 1021.0
20220123153139 23 136 0.0 0.0 0.00 0.05 0.00 58 1020.9
20220123152638 23 136 0.0 0.0 0.00 0.05 0.00 58 1020.9
20220123152138 22 136 0.0 0.0 0.00 0.05 0.00 59 1020.9
20220123151637 22 136 0.0 0.0 0.00 0.05 0.00 59 1020.7
20220123151134 22 136 0.0 0.0 0.00 0.05 0.00 58 1020.7
20220123150635 22 136 0.0 0.0 0.00 0.05 0.00 58 1020.6
20220123150135 22 136 0.0 0.0 0.00 0.05 0.00 58 1020.6
20220123145633 22 136 0.0 0.0 0.00 0.05 0.00 57 1020.6
20220123145133 22 136 0.0 0.0 0.00 0.05 0.00 56 1020.5
20220123144633 22 136 0.0 0.0 0.00 0.05 0.00 56 1020.4
20220123144135 22 136 0.0 0.0 0.00 0.05 0.00 56 1020.4
20220123143636 22 136 0.0 0.0 0.00 0.05 0.00 57 1020.5
20220123143128 21 136 0.0 0.0 0.00 0.05 0.00 58 1020.4
20220123142629 21 136 0.0 0.0 0.00 0.05 0.00 58 1020.6
20220123142129 21 136 0.0 0.0 0.00 0.05 0.00 59 1020.5
20220123141626 21 136 0.0 0.0 0.00 0.05 0.00 59 1020.5
20220123141126 20 136 0.0 0.0 0.00 0.05 0.00 60 1020.6
20220123140627 20 136 0.0 0.0 0.00 0.05 0.00 60 1020.7
20220123140127 21 136 0.0 0.0 0.00 0.05 0.00 59 1020.7
20220123135628 21 136 0.0 0.0 0.00 0.05 0.00 60 1020.6
20220123135127 21 136 0.0 0.0 0.00 0.05 0.00 60 1020.5
20220123134628 21 136 0.0 0.0 0.00 0.05 0.00 60 1020.4
20220123134126 21 136 0.0 0.0 0.00 0.05 0.00 61 1020.4
20220123133625 20 136 0.0 0.0 0.00 0.05 0.00 61 1020.6
20220123133125 20 136 0.0 0.0 0.00 0.05 0.00 62 1020.6
20220123132625 20 136 0.0 0.0 0.00 0.05 0.00 63 1020.6
20220123132126 20 136 0.0 0.0 0.00 0.05 0.00 64 1020.7
20220123131625 20 136 0.0 0.0 0.00 0.05 0.00 63 1021.0
20220123131124 20 136 0.0 0.0 0.00 0.05 0.00 63 1021.0
20220123130624 20 136 0.0 0.0 0.00 0.05 0.00 62 1021.0
20220123130125 20 136 0.0 0.0 0.00 0.05 0.00 63 1021.1
20220123125627 20 136 0.0 0.0 0.00 0.05 0.00 62 1021.2
20220123125125 20 136 0.0 0.0 0.00 0.05 0.00 62 1021.2
20220123124624 20 136 0.0 0.0 0.00 0.05 0.00 61 1021.2
20220123124124 21 136 0.0 0.0 0.00 0.05 0.00 60 1021.2
20220123123628 21 136 0.0 0.0 0.00 0.05 0.00 61 1021.1
20220123123124 21 136 0.0 0.0 0.00 0.05 0.00 61 1021.1
20220123122624 21 136 0.0 0.0 0.00 0.05 0.00 60 1021.1
20220123122124 21 136 0.0 0.0 0.00 0.05 0.00 60 1021.1
20220123121625 21 136 0.0 0.0 0.00 0.05 0.00 60 1021.3
20220123121126 22 136 0.0 0.0 0.00 0.05 0.00 59 1021.3
20220123120624 22 136 0.0 0.0 0.00 0.05 0.00 59 1021.3
20220123120125 22 136 0.0 0.0 0.00 0.05 0.00 58 1021.3
20220123115626 23 136 0.0 0.0 0.00 0.05 0.00 57 1021.6
20220123115124 23 136 0.0 0.0 0.00 0.05 0.00 56 1021.6
20220123114625 24 136 0.0 0.0 0.00 0.05 0.00 56 1021.3
20220123114124 24 136 0.0 0.0 0.00 0.05 0.00 56 1021.5
20220123113625 24 136 0.0 0.0 0.00 0.05 0.00 56 1021.3
20220123113125 24 136 0.0 0.0 0.00 0.05 0.00 56 1021.3
20220123112626 24 136 0.0 0.0 0.00 0.05 0.00 56 1021.3
20220123112124 24 136 0.0 0.0 0.00 0.05 0.00 57 1021.2
20220123111625 24 136 0.0 0.0 0.00 0.05 0.00 57 1021.3
20220123111124 24 136 0.0 0.0 0.00 0.05 0.00 57 1021.3
20220123110624 24 136 0.0 0.0 0.00 0.05 0.00 58 1021.3
20220123110124 24 136 0.0 2.6 0.00 0.05 0.00 59 1021.3
20220123105624 23 136 0.0 2.6 0.00 0.05 0.00 61 1021.3
20220123105124 22 136 0.0 0.0 0.00 0.05 0.00 62 1021.3
20220123104624 22 136 0.0 0.0 0.00 0.05 0.00 63 1021.5
20220123104124 21 136 0.0 0.0 0.00 0.05 0.00 64 1021.5
20220123103624 21 136 0.0 0.0 0.00 0.05 0.00 64 1021.7
20220123103125 21 136 0.0 0.0 0.00 0.05 0.00 64 1021.8
20220123102625 21 136 0.0 0.0 0.00 0.05 0.00 63 1021.9
20220123102123 21 136 0.0 0.0 0.00 0.05 0.00 63 1022.0
20220123101623 21 136 0.0 0.0 0.00 0.05 0.00 63 1022.0
20220123101122 21 136 0.0 0.0 0.00 0.05 0.00 62 1022.0